Location: Wells
(51.2093°N, 2.6446°W)
Time: 07:23:09
(UTC+01:00)

CUBEBUG 2 - Pass Details

Date: 18 March 2026
Orbit: 548 x 627 km, 97.9° (Epoch: 14 April)

Event Time Altitude Azimuth Distance (km) Brightness Sun altitude
Rises 03:53:58 0° 4° (N) 2,901 ? -22.5°
Reaches altitude 10° 03:56:30 10° 350° (N) 2,000 ? -22.2°
Enters shadow 03:58:58 21° 317° (NW) 1,411 ? -21.8°
